sat.trackr.live / text

‹ back to catalog

STARLINK-31570

NORAD 59324 · 2024-057E

PAYLOAD ACTIVE UNKNOWN

§ Identity

Operator
Country
US
Launch date
2024-03-25
Launch site
AFETR
Launch vehicle
Mass (kg)
RCS (m²)

Purposes: comms

External: N2YO · Heavens-Above · Gunter

§ Orbital elements

Epoch: 2026-09-20T01:51:50.757984Z

Period
94.27 min
Inclination
43.0021°
Eccentricity
0.0001202
Mean motion
15.27575460 rev/d
Perigee alt
482.2 km
Apogee alt
483.9 km
Semi-major
6,861.2 km
B*
2.4760e-5
RAAN
169.6673°
Arg perigee
276.2568°
Mean anomaly
83.8147°
Rev number
13,956

§ Raw data

STARLINK-315701 59324U 24057E   26263.07767081  .00000419  00000+0  24760-4 0  99922 59324  43.0021 169.6673 0001202 276.2568  83.8147 15.27575460139561

JSON: /api/v1/satellites/59324 · /tle

For live sub-satellite position, see the globe view (requires WebGL).

§ Visibility from observer

Set your observer location to see the next 7 days of passes ≥ 10°. The values pass through the URL so the page stays shareable.

No JS? Fill the form by hand. The geolocation button needs JavaScript.